Regional Weather Roundup
Issued by NWS Little Rock, AR

Home | Current Version | Previous Version | Text Only | Print | Product List | Glossary Off
Versions: 1 2 3 4 5 6 7 8 9 10 11 12 13 14 15 16 17 18 19 20 21 22 23 24 25 26 27 28 29 30 31 32 33 34 35 36 37 38 39 40 41 42 43 44 45 46 47 48 49 50

000
ASUS44 KLZK 271305
RWRLZK

WEATHER ROUNDUP FOR ARKANSAS
NATIONAL WEATHER SERVICE LITTLE ROCK AR
700 AM CST THU NOV 27 2014

NOTE: "FAIR" INDICATES FEW OR NO CLOUDS BELOW 12,000 FEET WITH NO
SIGNIFICANT WEATHER AND/OR OBSTRUCTIONS TO VISIBILITY.

ARZ001-003-010-029-271400-
NORTHWEST ARKANSAS

CITY           SKY/WX    TMP DP  RH WIND       PRES   REMARKS
FAYETTEVILLE   CLEAR     23  21  92 CALM      30.47R
FORT SMITH     CLEAR     29  24  82 W10       30.50R WCI  20
HARRISON       CLOUDY    29  23  78 NW6       30.45S WCI  23
BENTONVILLE    CLEAR     27  21  80 NW3       30.47R
ROGERS         PTCLDY    25  22  88 N5        30.46R WCI  19
SILOAM SPGS    CLEAR     23  16  74 NW3       30.49R
HIGHFILL       CLEAR     24  21  88 NW3       30.47R
SPRINGDALE     CLEAR     27  23  86 N7        30.47R WCI  19
$$

ARZ004-005-016-271400-
NORTH CENTRAL ARKANSAS

CITY           SKY/WX    TMP DP  RH WIND       PRES   REMARKS
BATESVILLE     CLOUDY    36  25  64 NW9       30.47R
FLIPPIN        CLOUDY    34  21  60 N6        30.47R WCI  29
MTN HOME       CLOUDY    32  25  75 VRB3      30.45R
$$

ARZ040-041-271400-
WEST CENTRAL ARKANSAS

CITY           SKY/WX    TMP DP  RH WIND       PRES   REMARKS
MENA           CLEAR     34  27  75 CALM      30.47R
MOUNT IDA      CLEAR     32  25  75 NW3       30.45R
$$

ARZ009-017-025-026-028-271400-
NORTHEAST ARKANSAS

CITY           SKY/WX    TMP DP  RH WIND       PRES   REMARKS
CORNING        FAIR      34  30  86 NW7       30.45R WCI  28
JONESBORO      CLOUDY    37  29  72 NW13      30.45R
NEWPORT        CLOUDY    37  28  70 N13       30.49R
WALNUT RIDGE   CLOUDY    37  27  65 NW10      30.46R
BLYTHEVILLE    MOCLDY    41  31  67 NW14      30.42R
$$

ARZ022-023-033-042-044-271400-
CENTRAL ARKANSAS

CITY           SKY/WX    TMP DP  RH WIND       PRES   REMARKS
LITTLE ROCK    PTCLDY    35  24  64 NW3       30.50R
N LITTLE ROCK    N/A     33  27  79 CALM      30.50R
JACKSONVILLE   CLEAR     33  25  71 NW6       30.48R WCI  27
SEARCY         CLEAR     34  25  69 N5        30.49R WCI  30
HOT SPRINGS    CLEAR     32  26  78 CALM      30.48R
RUSSELLVILLE   CLEAR     29  24  82 CALM      30.48R
CLINTON        FAIR      32  25  74 CALM      30.48R
$$

ARZ036-271400-
EAST ARKANSAS

CITY           SKY/WX    TMP DP  RH WIND       PRES   REMARKS
WEST MEMPHIS   CLOUDY    37  30  75 N9        30.43R
$$

ARZ050-053-066-070-073-271400-
SOUTHWEST ARKANSAS

CITY           SKY/WX    TMP DP  RH WIND       PRES   REMARKS
ARKADELPHIA    FAIR      34  28  79 W5        30.50R WCI  30
CAMDEN         CLEAR     34  27  75 MISG      30.49R
TEXARKANA      CLEAR     37  28  70 W9        30.50R
EL DORADO      FAIR      34  29  82 NW5       30.48R WCI  30
DE QUEEN       CLEAR     29  26  89 W5        30.50R WCI  24
$$

ARZ056-057-069-271400-
SOUTHEAST ARKANSAS

CITY           SKY/WX    TMP DP  RH WIND       PRES   REMARKS
PINE BLUFF     FLURRIES  34  26  72 N6        30.49R WCI  29
STUTTGART      CLEAR     34  25  69 NW7       30.49R WCI  28
MONTICELLO     CLEAR     35  28  75 W3        30.48R

$$




USA.gov is the U.S. government's official web portal to all federal, state and local government web resources and services.